Regional Weather Roundup
Issued by NWS

Home | Current Version | Previous Version | Text Only | Print | Product List | Glossary On
Versions: 1 2 3 4 5 6 7 8 9 10 11 12 13 14 15 16 17 18 19 20 21 22 23 24 25 26 27 28 29 30 31 32 33 34 35 36 37 38 39 40 41 42 43 44 45 46 47 48 49 50
000
ASUS43 KLOT 041622
RWRIL

ILLINOIS REGIONAL WEATHER ROUNDUP
NATIONAL WEATHER SERVICE CHICAGO/ROMEOVILLE IL
1100 AM CDT FRI SEP 04 2015

NOTE: "FAIR" INDICATES FEW OR NO CLOUDS BELOW 12,000 FEET WITH NO
SIGNIFICANT WEATHER AND/OR OBSTRUCTIONS TO VISIBILITY.

* THESE STATIONS ARE NOT UNDER NWS QUALITY CONTROL. THEY ALSO MAY NOT
  REPORT WEATHER SUCH AS PRECIPITATION OR FOG.

ILZ001-002-007-009-015-016-024-041700-
NORTHWEST ILLINOIS

CITY           SKY/WX    TMP DP  RH WIND       PRES   REMARKS
MOLINE         MOSUNNY   87  70  56 NW3       30.01S HX  92
STERLING*      MOSUNNY   88  73  62 CALM      30.01R HX  96
SAVANNA*       MOSUNNY   81  70  68 CALM      30.02S HX  85
$$

ILZ003-004-008-010-011-017-018-041700-
NORTH CENTRAL ILLINOIS

CITY           SKY/WX    TMP DP  RH WIND       PRES   REMARKS
ROCKFORD       MOSUNNY   80  69  69 SE5       30.05S HX  83
FREEPORT*      PTSUNNY   77  70  79 SE3       30.05S
ROCHELLE*      PTSUNNY   79  71  75 CALM      30.05S HX  82
DE KALB*       CLOUDY    78  70  75 S5        30.05S HX  81
PERU*          MOSUNNY   82  68  62 CALM      30.04S HX  85
$$

ILZ005-006-012>014-019>023-041700-
NORTHEAST ILLINOIS

CITY           SKY/WX    TMP DP  RH WIND       PRES   REMARKS
CHICAGO-OHARE  MOSUNNY   76  66  71 VRB3      30.03S
CHICAGO-MIDWAY MOSUNNY   81  67  62 CALM      30.03S HX  83
AURORA         CLOUDY    79  69  71 CALM      30.04S HX  81
LANSING*       MOSUNNY   80  68  67 CALM      30.04R HX  83
JOLIET*        CLOUDY    82  71  69 CALM      30.03S HX  86
WAUKEGAN       CLOUDY    71  66  84 NE5       30.04F
DUPAGE AIRPORT PTSUNNY   80  68  66 CALM      30.04R HX  83
KANKAKEE*      CLOUDY    80  71  74 CALM      30.04S HX  84
WHEELING       MOSUNNY   73  66  78 VRB5      30.05F
MORRIS*        PTSUNNY   79  70  74 CALM      30.03R HX  81
ROMEOVILLE*    CLOUDY    80  67  65 CALM      30.04S HX  83
NORTHERLY ISL    N/A     73  66  78 NE6         N/A
$$

LMZ740>746-041700-
SOUTHERN LAKE MICHIGAN

STATION/POSITION SKY/WX   TEMP    WIND        PRES    VSBY  WAVE
                          AIR SEA DIR/SP/G                  HT/PER
                          (F)     (DEG/KT/KT) (MB)    (MI)  (FT/S)
SOUTHERN BUOY              67 71  320/  6/  8 1016.8          1/ 4
WILMETTE HARBOR            66 70  160/  8/ 10   N/A           2/ 4
HARRISON CRIB              69     350/ 10/ 11   N/A
BURNHAM HARBOR             74      40/  5/  7   N/A
CALUMET HARBOR             73     360/  4/  7   N/A
BURNS HARBOR               72      20/  5/  6 1017.3R
MICHIGAN CITY              74     340/  5/  6   N/A
MICHIGAN CITY 6N           72 74   10/  4/  6   N/A           2/ 4
ST. JOSEPH                 71 74   50/  4/  6   N/A           1/ 4
$$

ILZ025>027-034>036-040-047-049-050-058-095>099-041700-
WEST-CENTRAL ILLINOIS

CITY           SKY/WX    TMP DP  RH WIND       PRES   REMARKS
QUINCY         SUNNY     87  69  54 W7        30.04R HX  91
GALESBURG*     SUNNY     87  70  57 SW3       30.03S HX  91
MACOMB*        SUNNY     87  70  56 NW6       30.05S HX  91
JACKSONVILLE*  SUNNY     91  71  52 W3        30.04R HX  97
PITTSFIELD*    SUNNY     88  67  48 SW7       30.05S HX  91
$$

ILZ028>032-037-038-041>044-048-051>054-059>061-041700-
CENTRAL ILLINOIS

CITY           SKY/WX    TMP DP  RH WIND       PRES   REMARKS
PONTIAC        MOSUNNY   86  74  67 W7        30.04R HX  94
BLOOMINGTON    MOSUNNY   87  71  58 CALM      30.06R HX  92
DECATUR        SUNNY     89  69  51 W6        30.05R HX  93
PEORIA         SUNNY     89  70  53 VRB3      30.03S HX  94
LACON*         SUNNY     84  70  63 SW3       30.01S HX  88
LINCOLN*       MOSUNNY   88  70  55 CALM      30.02S HX  92
SPRINGFIELD    SUNNY     90  70  51 SW6       30.04R HX  95
TAYLORVILLE    MOSUNNY   88  68  51 SW6       30.04S HX  91
$$

ILZ033-039-045-046-055>057-062-063-041700-
EAST-CENTRAL ILLINOIS

CITY           SKY/WX    TMP DP  RH WIND       PRES   REMARKS
CHAMPAIGN      SUNNY     89  69  51 SW6       30.05R HX  93
MATTOON        SUNNY     88  66  48 VRB3      30.04  HX  90
PARIS*         SUNNY     88  69  52 CALM      30.05S HX  92
$$

ILZ079-100>102-041700-
SOUTHWEST ILLINOIS

CITY           SKY/WX    TMP DP  RH WIND       PRES   REMARKS
ALTON          SUNNY     86  72  62 SW6       30.05R HX  92
BELLEVILLE     SUNNY     87  74  64 VRB1      30.03S HX  96
CAHOKIA*       SUNNY     87  70  56 CALM      30.04S HX  92
SPARTA*        SUNNY     86  71  60 CALM      30.06S HX  91
$$

ILZ064>066-069>071-074>076-080>082-084>086-088>090-092>094-041700-
SOUTH-CENTRAL ILLINOIS

CITY           SKY/WX    TMP DP  RH WIND       PRES   REMARKS
CARBONDALE     SUNNY     87  70  56 CALM      30.05R HX  92
CAIRO*         SUNNY     85  75  73 CALM      30.05S HX  93
EFFINGHAM*     SUNNY     88  66  48 SW3       30.06S HX  90
MARION         MOSUNNY   90  70  51 CALM      30.06S HX  95
MT. VERNON     SUNNY     90  70  51 S5        30.06S HX  95
CENTRALIA*     SUNNY     88  73  60 CALM      30.05S HX  95
SALEM*         SUNNY     89  69  51 W3        30.05F HX  94
METROPOLIS*    SUNNY     87  74  64 S3        30.05F HX  96
$$

ILZ067-068-072-073-078-083-087-091-041700-
SOUTHEAST ILLINOIS

CITY           SKY/WX    TMP DP  RH WIND       PRES   REMARKS
LAWRENCEVILLE  SUNNY     89  69  51 VRB7      30.05S HX  93
FLORA*         SUNNY     89  68  50 SW7       30.05S HX  92
FAIRFIELD*     SUNNY     87  69  54 SW5       30.04S HX  92
HARRISBURG*    SUNNY     88  70  55 W3        30.05S HX  93
ROBINSON*      SUNNY     88  69  51 W5        30.06S HX  92
CARMI*         SUNNY     87  71  59 CALM      30.05S HX  92
$$

ABBREVIATIONS USED IN REMARKS
   TC - TEMPERATURE IN CELSIUS
  WCI - WIND CHILL INDEX
   HX - HEAT INDEX
  VSB - VISIBILITY
$$



USA.gov is the U.S. government's official web portal to all federal, state and local government web resources and services.